PBO Station Position Time Series. Reference Frame : NAM14
Format Version,1.1.1
4-character ID,JFWS
Station name,JewelFarm_WI2006
Begin Date, 2006-09-27
End Date, 2023-06-26
Release Date, 2023-06-27
Reference position, 42.9142714853 North Latitude, -90.2481068877 East Longitude, 293.62826 meters elevation,
Date, North (mm), East (mm), Vertical (mm), North Std. Deviation (mm), East Std. Deviation (mm),              Vertical Std. Deviation (mm), Quality,
2006-09-27,0.00, 0.00, 0.00, 2.21, 1.65, 7.37, repro,
2006-09-28,-0.13, 0.39, -7.67, 2.18, 1.64, 7.30, repro,
2006-09-29,1.29, 0.64, 1.48, 2.26, 1.70, 7.47, repro,
2006-09-30,-1.88, 0.31, 7.24, 2.21, 1.61, 7.29, repro,
2006-10-01,-1.49, 0.58, -2.74, 2.28, 1.71, 7.52, repro,
2006-10-02,0.19, 1.81, -4.18, 2.25, 1.67, 7.54, repro,
2006-10-03,3.06, 0.83, -9.08, 2.27, 1.72, 7.74, repro,
2006-10-04,2.23, 0.07, -9.82, 2.21, 1.65, 7.47, repro,
2006-10-05,-0.04, -0.02, -16.25, 2.18, 1.61, 7.28, repro,
2006-10-06,0.14, 1.42, -12.67, 2.20, 1.63, 7.39, repro,
2006-10-07,1.74, 1.10, -7.03, 2.29, 1.72, 7.56, repro,
2006-10-08,1.36, 0.47, -9.05, 2.21, 1.65, 7.37, repro,
2006-10-09,1.08, 0.76, -2.90, 2.23, 1.65, 7.41, repro,
2006-10-10,1.37, 0.86, 1.47, 2.18, 1.61, 7.29, repro,
2006-10-11,-0.36, 0.41, 9.07, 2.24, 1.66, 7.50, repro,
2006-10-12,-0.33, 0.24, 8.85, 2.19, 1.62, 7.36, repro,
2006-10-13,0.78, -0.55, 2.41, 2.14, 1.60, 7.25, repro,
2006-10-14,0.82, 0.56, 4.92, 2.15, 1.62, 7.23, repro,
2006-10-15,1.30, 1.44, 0.91, 2.16, 1.63, 7.31, repro,
2006-10-16,0.77, 0.79, 7.20, 2.13, 1.60, 7.22, repro,
2006-10-17,1.31, 1.12, 5.33, 2.19, 1.65, 7.38, repro,
2006-10-18,0.00, 0.35, -2.74, 2.16, 1.61, 7.32, repro,
2006-10-19,0.87, -0.17, 0.11, 2.19, 1.67, 7.36, repro,
2006-10-20,0.97, 0.47, 0.14, 2.40, 1.81, 7.78, repro,
2006-10-21,1.66, -0.22, -4.69, 2.16, 1.63, 7.26, repro,
2006-10-22,-1.08, -3.27, -1.28, 2.22, 1.69, 7.45, repro,
2006-10-23,1.59, -1.02, -4.38, 2.29, 1.73, 7.75, repro,
2006-10-24,1.31, 0.20, -9.24, 2.25, 1.71, 7.55, repro,
2006-10-25,0.49, 1.51, -7.23, 2.25, 1.68, 7.55, repro,
2006-10-26,1.32, 0.70, -4.90, 2.29, 1.67, 7.52, repro,
2006-10-27,0.10, 0.21, -2.73, 2.16, 1.63, 7.25, repro,
2006-10-28,0.73, -0.07, -6.15, 2.22, 1.67, 7.46, repro,
2006-10-29,0.96, 0.57, -4.89, 2.18, 1.63, 7.34, repro,
2006-10-30,1.07, 0.23, -5.92, 2.10, 1.58, 7.10, repro,
2006-10-31,1.72, -0.32, -2.77, 2.13, 1.62, 7.16, repro,
2006-11-01,0.10, 0.10, -8.07, 2.28, 1.72, 7.47, repro,
2006-11-02,-2.07, 1.19, -8.94, 2.19, 1.65, 7.42, repro,
2006-11-03,0.37, -0.19, -18.70, 2.28, 1.70, 7.55, repro,
2006-11-04,0.55, 0.27, -15.95, 2.27, 1.72, 7.61, repro,
2006-11-05,-0.88, 1.02, -6.86, 2.20, 1.66, 7.40, repro,
2006-11-06,-0.17, 1.04, -8.60, 2.13, 1.59, 7.16, repro,
2006-11-07,-0.02, 1.06, -5.64, 2.30, 1.75, 7.72, repro,
2006-11-08,-0.51, 0.24, -2.03, 2.24, 1.69, 7.62, repro,
2006-11-09,1.05, -0.15, 5.84, 2.29, 1.74, 7.69, repro,
2006-11-10,3.00, -1.21, -8.87, 2.17, 1.63, 7.36, repro,
2006-11-11,-0.86, -3.85, -9.49, 2.23, 1.68, 7.53, repro,
2006-11-12,0.44, 1.06, -6.08, 2.26, 1.71, 7.64, repro,
2006-11-13,-0.84, 0.19, -3.76, 2.22, 1.67, 7.55, repro,
2006-11-14,0.67, -0.13, -1.05, 2.14, 1.59, 7.20, repro,
2006-11-15,2.19, -0.18, -3.59, 2.12, 1.57, 7.10, repro,
2006-11-16,1.41, 0.46, 0.69, 2.10, 1.57, 7.12, repro,
2006-11-17,0.37, -0.10, -1.07, 2.11, 1.58, 7.15, repro,
2006-11-18,1.18, -0.14, -6.17, 2.13, 1.58, 7.14, repro,
2006-11-19,0.18, -0.94, -10.12, 2.12, 1.58, 7.18, repro,
2006-11-20,0.47, -0.30, -12.79, 2.11, 1.57, 7.13, repro,
2006-11-21,0.53, 0.50, -10.27, 2.11, 1.58, 7.17, repro,
2006-11-22,0.02, 1.36, -6.09, 2.11, 1.58, 7.15, repro,
2006-11-23,1.37, 1.37, -10.12, 2.18, 1.62, 7.33, repro,
2006-11-24,-0.52, 1.09, -7.55, 2.19, 1.62, 7.39, repro,
2006-11-25,0.04, 0.02, -7.25, 2.11, 1.58, 7.18, repro,
2006-11-26,2.64, -0.47, -10.30, 2.14, 1.61, 7.28, repro,
2006-11-27,0.66, -0.01, -8.74, 2.14, 1.61, 7.33, repro,
2006-11-28,1.11, 0.90, -8.32, 2.13, 1.59, 7.27, repro,
2006-11-29,-0.15, -0.45, -3.75, 2.20, 1.63, 7.41, repro,
2006-11-30,1.48, -1.80, -13.18, 2.14, 1.59, 7.28, repro,
2006-12-01,0.37, -0.75, -3.70, 2.13, 1.59, 7.29, repro,
2006-12-02,1.41, -1.01, -15.21, 2.12, 1.58, 7.19, repro,
2006-12-03,0.34, -0.14, -15.45, 2.12, 1.58, 7.21, repro,
2006-12-04,-0.45, 0.48, -13.74, 2.15, 1.60, 7.25, repro,
2006-12-05,0.04, -0.30, -15.97, 2.25, 1.69, 7.64, repro,
2006-12-06,-0.10, -0.60, -8.85, 2.19, 1.66, 7.56, repro,
2006-12-07,0.38, -0.75, -15.26, 2.13, 1.60, 7.25, repro,
2006-12-08,-0.05, -0.03, -12.77, 2.19, 1.62, 7.46, repro,
2006-12-09,-1.06, 0.25, -3.74, 2.17, 1.63, 7.41, repro,
2006-12-10,1.50, 0.36, -9.70, 2.16, 1.62, 7.37, repro,
2006-12-11,1.90, 0.41, -6.14, 2.14, 1.59, 7.31, repro,
2006-12-12,-0.77, 0.50, -6.52, 2.15, 1.61, 7.34, repro,
2006-12-13,0.09, 0.45, -1.04, 2.13, 1.60, 7.31, repro,
2006-12-14,0.66, 0.63, 1.84, 2.10, 1.58, 7.20, repro,
2006-12-15,0.33, -1.23, -3.55, 2.21, 1.63, 7.48, repro,
2006-12-16,1.74, 1.30, -4.75, 2.21, 1.68, 7.62, repro,
2006-12-17,1.55, 0.12, -8.02, 2.23, 1.68, 7.70, repro,
2006-12-18,0.38, -0.05, -10.21, 2.29, 1.73, 7.95, repro,
2006-12-19,-0.42, 0.29, -6.11, 2.27, 1.64, 7.69, repro,
2006-12-20,0.37, -0.20, -7.96, 2.19, 1.62, 7.43, repro,
2006-12-21,-0.99, -0.16, -6.61, 2.11, 1.58, 7.15, repro,
2006-12-22,0.03, 1.50, -4.10, 2.24, 1.66, 7.65, repro,
2006-12-23,-1.31, -0.44, -0.52, 2.19, 1.61, 7.42, repro,
2006-12-24,0.12, 0.51, -5.77, 2.11, 1.59, 7.20, repro,
2006-12-25,1.12, 0.03, -8.08, 2.14, 1.59, 7.27, repro,
2006-12-26,2.09, -0.78, -7.45, 2.20, 1.63, 7.45, repro,
2006-12-27,0.38, 0.65, -6.55, 2.20, 1.64, 7.37, repro,
2006-12-28,1.34, 0.51, -8.04, 2.26, 1.64, 7.51, repro,
2006-12-29,0.04, 1.50, -16.47, 2.33, 1.70, 7.83, repro,
2006-12-30,-0.04, 0.63, -15.30, 2.18, 1.63, 7.37, repro,
2006-12-31,-1.29, -0.27, -9.07, 2.35, 1.68, 7.73, repro,
2007-01-01,-0.49, 0.56, -8.67, 2.33, 1.70, 7.78, repro,
2007-01-02,-0.57, 0.27, -9.04, 2.25, 1.62, 7.43, repro,
2007-01-03,-0.72, 1.33, 0.27, 2.19, 1.63, 7.41, repro,
2007-01-04,-0.71, 0.84, 3.77, 2.15, 1.60, 7.25, repro,
2007-01-05,-1.00, 0.85, 5.99, 2.16, 1.59, 7.25, repro,
2007-01-06,-0.01, -0.94, -6.88, 2.16, 1.58, 7.18, repro,
2007-01-07,1.17, 0.48, -11.32, 2.20, 1.60, 7.34, repro,
2007-01-08,1.04, 1.97, -4.01, 2.19, 1.61, 7.36, repro,
2007-01-09,0.25, -0.16, -6.22, 2.12, 1.58, 7.24, repro,
2007-01-10,0.22, 0.47, -7.36, 2.13, 1.62, 7.36, repro,
2007-01-11,-0.05, 0.52, -4.03, 2.20, 1.67, 7.52, repro,
2007-01-12,-0.02, -0.81, -11.70, 2.16, 1.59, 7.24, repro,
2007-01-13,1.25, -0.56, -15.93, 2.12, 1.57, 7.20, repro,
2007-01-14,0.97, -0.13, -23.08, 2.11, 1.56, 7.15, repro,
2007-01-15,-0.18, -0.75, -14.84, 2.09, 1.55, 7.05, repro,
2007-01-16,-0.04, 0.36, -18.03, 2.14, 1.58, 7.19, repro,
2007-01-17,-1.27, -0.18, -15.93, 2.22, 1.58, 7.33, repro,
2007-01-18,-0.54, -0.51, -13.97, 2.18, 1.59, 7.28, repro,
2007-01-19,-0.23, -1.11, -14.24, 2.14, 1.60, 7.17, repro,
2007-01-20,-0.10, -1.24, -17.97, 2.13, 1.61, 7.20, repro,
2007-01-21,0.39, -0.27, -13.98, 2.10, 1.55, 7.04, repro,
2007-01-22,-0.80, -0.17, -8.17, 2.12, 1.55, 7.09, repro,
2007-01-23,0.22, -0.51, -9.52, 2.18, 1.59, 7.32, repro,
2007-01-24,0.41, -1.19, -12.82, 2.16, 1.57, 7.17, repro,
2007-01-25,0.37, -1.83, -19.84, 2.17, 1.59, 7.33, repro,
2007-01-26,-1.16, -1.55, -9.17, 2.18, 1.61, 7.41, repro,
2007-01-27,-0.76, -1.18, -6.53, 2.21, 1.64, 7.58, repro,
2007-01-28,-1.20, -1.40, -6.23, 2.12, 1.55, 7.12, repro,
2007-01-29,-0.14, -0.24, -13.33, 2.14, 1.57, 7.19, repro,
2007-01-30,0.13, -1.12, -18.99, 2.19, 1.61, 7.45, repro,
2007-01-31,-0.78, -1.22, -15.30, 2.14, 1.58, 7.24, repro,
2007-02-01,-0.73, -1.55, -6.06, 2.25, 1.65, 7.59, repro,
2007-02-02,0.71, -0.52, -6.86, 2.19, 1.59, 7.30, repro,
2007-02-03,0.12, -1.39, -7.32, 2.24, 1.62, 7.53, repro,
2007-02-04,0.42, -1.71, -13.95, 2.23, 1.64, 7.55, repro,
2007-02-05,0.97, -2.11, -30.99, 2.13, 1.58, 7.24, repro,
2007-02-06,0.00, -1.03, -20.97, 2.21, 1.65, 7.61, repro,
2007-02-07,-2.03, -1.35, -14.61, 2.15, 1.58, 7.34, repro,
2007-02-08,-0.68, -2.00, -9.78, 2.32, 1.66, 7.75, repro,
2007-02-09,0.15, -1.62, -13.85, 2.26, 1.63, 7.63, repro,
2007-02-10,0.13, -2.93, -16.53, 2.22, 1.64, 7.56, repro,
2007-02-11,-1.12, -0.76, -11.02, 2.21, 1.65, 7.62, repro,
2007-02-12,0.10, -0.22, -20.96, 2.17, 1.62, 7.39, repro,
2007-02-13,-0.24, -1.17, -14.24, 2.21, 1.64, 7.56, repro,
2007-02-14,0.46, -1.41, -17.03, 2.12, 1.57, 7.18, repro,
2007-02-15,-0.08, -1.82, -17.52, 2.14, 1.58, 7.30, repro,
2007-02-16,-0.59, -1.26, -7.35, 2.16, 1.60, 7.43, repro,
2007-02-17,0.54, -0.96, -8.51, 2.16, 1.61, 7.43, repro,
2007-02-18,-2.89, -0.56, -5.42, 2.09, 1.55, 7.11, repro,
2007-02-19,-0.83, 0.38, -0.30, 2.16, 1.59, 7.39, repro,
2007-02-20,0.10, -0.92, -2.28, 2.18, 1.61, 7.47, repro,
2007-02-21,0.54, -1.44, -8.52, 2.10, 1.55, 7.14, repro,
2007-02-22,-0.64, -1.20, -16.71, 2.09, 1.55, 7.11, repro,
2007-02-23,-0.29, -1.08, -16.52, 2.17, 1.66, 7.53, repro,
2007-02-24,0.55, -0.78, -13.58, 2.11, 1.55, 7.13, repro,
2007-02-25,0.43, -0.84, -12.47, 2.10, 1.55, 7.10, repro,
2007-02-26,0.12, -1.68, -10.71, 2.10, 1.54, 7.10, repro,
2007-02-27,0.75, -0.43, -11.91, 2.11, 1.57, 7.15, repro,
2007-02-28,-0.38, 0.62, -11.85, 2.08, 1.54, 7.03, repro,
2007-03-01,0.10, -0.29, -6.78, 2.19, 1.62, 7.33, repro,
2007-03-02,0.68, -0.89, -2.09, 2.26, 1.65, 7.51, repro,
2007-03-03,0.27, -1.75, -10.86, 2.17, 1.58, 7.22, repro,
2007-03-04,0.17, -1.90, -15.00, 2.14, 1.56, 7.14, repro,
2007-03-05,-0.27, -1.02, -20.12, 2.14, 1.58, 7.21, repro,
2007-03-06,0.16, 0.35, -21.63, 2.14, 1.58, 7.24, repro,
2007-03-07,-0.63, 0.01, -16.91, 2.16, 1.58, 7.22, repro,
2007-03-08,-1.52, -0.16, -13.05, 2.17, 1.58, 7.24, repro,
2007-03-09,0.15, -0.28, -13.54, 2.14, 1.57, 7.17, repro,
2007-03-10,-0.82, -0.82, -20.11, 2.16, 1.62, 7.31, repro,
2007-03-11,0.64, 0.18, -19.16, 2.15, 1.59, 7.20, repro,
2007-03-12,-1.36, 0.47, -15.51, 2.21, 1.61, 7.34, repro,
2007-03-13,-1.15, 0.03, -9.95, 2.13, 1.56, 7.25, repro,
2007-03-14,-1.17, -1.44, -10.24, 2.16, 1.58, 7.26, repro,
2007-03-15,0.17, -2.32, -19.10, 2.18, 1.61, 7.38, repro,
2007-03-16,-0.79, -2.32, -22.01, 2.14, 1.58, 7.22, repro,
2007-03-17,-1.05, -1.58, -22.20, 2.12, 1.56, 7.20, repro,
2007-03-18,-0.92, -1.16, -21.32, 2.18, 1.60, 7.36, repro,
2007-03-19,-0.87, -1.27, -15.15, 2.14, 1.57, 7.26, repro,
2007-03-20,-1.14, -0.65, -22.22, 2.20, 1.64, 7.50, repro,
2007-03-21,-2.75, -0.41, -12.67, 2.21, 1.65, 7.54, repro,
2007-03-22,-2.60, -1.37, -6.55, 2.15, 1.59, 7.28, repro,
2007-03-23,-2.43, -0.25, -15.54, 2.18, 1.60, 7.37, repro,
2007-03-24,-1.02, -0.43, -14.54, 2.18, 1.59, 7.40, repro,
2007-03-25,-1.69, -0.41, -13.32, 2.12, 1.56, 7.20, repro,
2007-03-26,-3.19, -0.37, -7.37, 2.14, 1.57, 7.26, repro,
2007-03-27,-1.85, -0.39, -14.75, 2.16, 1.58, 7.27, repro,
2007-03-28,-1.52, 0.80, -21.69, 2.22, 1.62, 7.49, repro,
2007-03-29,1.11, -0.44, -21.60, 2.17, 1.59, 7.33, repro,
2007-03-30,-0.22, -0.73, -21.79, 2.12, 1.56, 7.21, repro,
2007-03-31,0.48, -1.07, -8.20, 2.14, 1.60, 7.28, repro,
2007-04-01,-2.78, -1.05, -9.35, 2.13, 1.56, 7.24, repro,
2007-04-02,-1.09, -0.47, -13.06, 2.13, 1.56, 7.16, repro,
2007-04-03,-1.06, -1.18, -18.15, 2.18, 1.59, 7.27, repro,
2007-04-04,-1.01, -1.86, -21.59, 2.17, 1.58, 7.18, repro,
2007-04-05,-1.40, -2.40, -17.85, 2.15, 1.56, 7.18, repro,
2007-04-06,-1.56, -2.88, -21.96, 2.26, 1.62, 7.46, repro,
2007-04-07,-2.84, -2.58, -10.09, 2.23, 1.63, 7.48, repro,
2007-04-08,-0.49, -2.31, -13.20, 2.14, 1.61, 7.30, repro,
2007-04-09,-0.65, -1.56, -9.53, 2.13, 1.61, 7.26, repro,
2007-04-10,-0.91, -1.06, -7.03, 2.11, 1.60, 7.27, repro,
2007-04-11,-1.23, -3.24, -14.40, 2.09, 1.56, 7.16, repro,
2007-04-12,-2.97, -4.58, -6.69, 2.11, 1.56, 7.19, repro,
2007-04-13,-1.96, -2.26, -13.94, 2.12, 1.56, 7.16, repro,
2007-04-14,-0.58, -1.83, -14.09, 2.11, 1.55, 7.14, repro,
2007-04-15,0.25, -1.58, -12.33, 2.09, 1.56, 7.18, repro,
2007-04-16,-0.40, -2.98, -12.53, 2.12, 1.58, 7.25, repro,
2007-04-17,-0.47, -2.14, -11.89, 2.16, 1.60, 7.29, repro,
2007-04-18,-1.31, -1.62, -12.23, 2.11, 1.56, 7.19, repro,
2007-04-19,-1.84, -1.13, -8.52, 2.09, 1.54, 7.12, repro,
2007-04-20,-1.69, -1.10, -18.73, 2.10, 1.55, 7.08, repro,
2007-04-21,-1.84, -0.74, -10.60, 2.09, 1.56, 7.10, repro,
2007-04-22,-1.81, -1.99, -8.64, 2.10, 1.56, 7.15, repro,
2007-04-23,-1.18, -1.70, -8.80, 2.14, 1.61, 7.39, repro,
2007-04-24,-2.47, -1.80, -12.48, 2.10, 1.57, 7.15, repro,
2007-04-25,-1.14, -1.51, -11.69, 2.13, 1.58, 7.22, repro,
2007-04-26,-0.80, -3.04, -11.70, 2.09, 1.55, 7.10, repro,
2007-04-27,-0.91, -2.95, -16.04, 2.13, 1.59, 7.34, repro,
2007-04-28,-2.22, -1.50, -5.10, 2.09, 1.56, 7.14, repro,
2007-04-29,-2.71, -2.18, -11.16, 2.14, 1.61, 7.36, repro,
2007-04-30,-0.98, -1.57, -13.27, 2.17, 1.57, 7.35, repro,
2007-05-01,-0.78, -2.10, -11.71, 2.11, 1.56, 7.16, repro,
2007-05-02,-0.58, -1.89, -21.87, 2.11, 1.60, 7.24, repro,
2007-05-03,-0.37, -0.94, -16.48, 2.12, 1.61, 7.28, repro,
2007-05-04,-0.64, -1.26, -13.62, 2.09, 1.55, 7.10, repro,
2007-05-05,-1.13, -0.22, -12.51, 2.14, 1.57, 7.30, repro,
2007-05-06,-1.46, -1.35, -18.48, 2.09, 1.55, 7.10, repro,
2007-05-07,-2.43, -3.08, -14.52, 2.10, 1.57, 7.26, repro,
2007-05-08,-3.36, -2.67, -14.34, 2.12, 1.59, 7.29, repro,
2007-05-09,-0.46, -1.92, -10.57, 2.08, 1.56, 7.11, repro,
2007-05-10,-1.85, -1.90, -6.25, 2.20, 1.65, 7.51, repro,
2007-05-11,-1.94, -3.18, -8.31, 2.19, 1.64, 7.51, repro,
2007-05-12,-1.11, -3.07, -16.28, 2.08, 1.56, 7.09, repro,
2007-05-13,-4.48, -3.25, -14.83, 2.13, 1.61, 7.31, repro,
2007-05-14,-4.13, -1.44, -7.63, 2.12, 1.59, 7.29, repro,
2007-05-15,-5.06, -3.88, -6.61, 2.43, 1.76, 7.89, repro,
2007-05-16,-2.68, -3.10, -10.08, 2.18, 1.63, 7.49, repro,
2007-05-17,-2.00, -2.81, -16.60, 2.09, 1.60, 7.15, repro,
2007-05-18,-2.51, -1.45, -19.12, 2.14, 1.65, 7.45, repro,
2007-05-19,-2.07, -1.75, -13.81, 2.09, 1.56, 7.13, repro,
2007-05-20,-1.58, -1.79, -10.03, 2.10, 1.57, 7.18, repro,
2007-05-21,-1.38, -1.34, -6.75, 2.09, 1.55, 7.06, repro,
2007-05-22,-2.78, -1.12, -2.52, 2.07, 1.56, 7.04, repro,
2007-05-23,-1.80, -1.80, -12.93, 2.08, 1.56, 7.06, repro,
2007-05-24,-1.46, -1.79, -9.30, 2.19, 1.68, 7.65, repro,
2007-05-25,-1.53, -2.89, -13.07, 2.08, 1.56, 7.08, repro,
2007-05-26,-0.60, -2.43, -16.02, 2.10, 1.58, 7.22, repro,
2007-05-27,0.28, -2.00, -14.47, 2.09, 1.55, 7.08, repro,
2007-05-28,-2.13, -2.55, -14.54, 2.08, 1.56, 7.07, repro,
2007-05-29,-1.27, -2.06, -6.61, 2.14, 1.62, 7.36, repro,
2007-05-30,-2.19, -1.88, -9.50, 2.12, 1.59, 7.24, repro,
2007-05-31,-2.02, -1.52, -8.66, 2.24, 1.66, 7.63, repro,
2007-06-01,-3.17, -3.93, -10.92, 2.17, 1.62, 7.48, repro,
2007-06-02,-2.66, -2.35, -4.33, 2.13, 1.60, 7.18, repro,
2007-06-03,-3.41, -4.96, -2.90, 2.08, 1.57, 7.13, repro,
2007-06-04,-2.17, -3.62, 4.78, 2.10, 1.59, 7.16, repro,
2007-06-05,-2.17, -3.20, -2.11, 2.16, 1.63, 7.36, repro,
2007-06-06,-2.96, -2.64, 0.19, 2.06, 1.57, 7.12, repro,
2007-06-07,-3.15, -0.37, -1.22, 2.16, 1.63, 7.37, repro,
2007-06-08,-2.27, -5.43, -6.20, 2.09, 1.59, 7.18, repro,
2007-06-09,-0.63, -2.55, -16.23, 2.07, 1.56, 7.06, repro,
2007-06-10,-0.89, -2.01, -15.73, 2.06, 1.56, 7.05, repro,
2007-06-11,-1.22, -2.10, -10.90, 2.11, 1.58, 7.20, repro,
2007-06-12,-1.23, -2.54, -10.80, 2.12, 1.58, 7.21, repro,
2007-06-13,-3.53, -1.74, -8.81, 2.09, 1.58, 7.13, repro,
2007-06-14,-3.22, -2.89, -11.03, 2.07, 1.59, 7.13, repro,
2007-06-15,-2.69, -3.50, -8.78, 2.05, 1.55, 6.98, repro,
2007-06-16,-1.63, -2.97, -12.65, 2.07, 1.57, 7.06, repro,
2007-06-17,-2.14, -3.31, -4.71, 2.08, 1.58, 7.12, repro,
2007-06-18,-1.71, -4.10, -9.85, 2.08, 1.57, 7.11, repro,
2007-06-19,-3.35, -4.05, -4.82, 2.12, 1.59, 7.27, repro,
2007-06-20,-3.37, -2.44, -6.57, 2.06, 1.56, 7.02, repro,
2007-06-21,0.20, -4.30, -11.40, 2.09, 1.58, 7.13, repro,
2007-06-22,-1.96, -5.60, -11.11, 2.21, 1.64, 7.50, repro,
2007-06-23,-0.67, -4.11, -8.84, 2.05, 1.56, 7.04, repro,
2007-06-24,-2.55, -4.13, -10.71, 2.13, 1.63, 7.27, repro,
2007-06-25,-3.76, -2.86, -7.54, 2.10, 1.59, 7.19, repro,
2007-06-26,-3.24, -2.39, -15.59, 2.08, 1.57, 7.13, repro,
2007-06-27,-1.01, -4.72, -13.28, 2.09, 1.58, 7.20, repro,
2007-06-28,-2.00, -4.08, -11.40, 2.11, 1.60, 7.14, repro,
2007-06-29,-2.59, -4.04, -8.25, 2.08, 1.57, 7.10, repro,
2007-06-30,-2.47, -2.56, -8.85, 2.10, 1.60, 7.18, repro,
2007-07-01,-2.61, -2.26, -11.70, 2.06, 1.56, 7.05, repro,
2007-07-02,-2.99, -2.68, -8.12, 2.08, 1.57, 7.09, repro,
2007-07-03,-2.84, -3.77, -6.37, 2.07, 1.57, 7.10, repro,
2007-07-04,-4.22, -3.57, -4.77, 2.22, 1.67, 7.41, repro,
2007-07-05,-2.09, -4.14, -3.87, 2.12, 1.59, 7.21, repro,
2007-07-06,-3.94, -4.61, -8.22, 2.09, 1.57, 7.15, repro,
2007-07-07,-1.59, -2.51, -4.19, 2.08, 1.56, 7.07, repro,
2007-07-08,-1.24, -3.68, 1.18, 2.09, 1.57, 7.11, repro,
2007-07-09,-1.80, -4.53, -1.45, 2.09, 1.58, 7.13, repro,
2007-07-10,-1.52, -3.32, -3.77, 2.15, 1.63, 7.31, repro,
2007-07-11,-3.45, -4.07, -1.44, 2.08, 1.57, 7.06, repro,
2007-07-12,-2.26, -3.94, -6.20, 2.14, 1.59, 7.27, repro,
2007-07-13,-1.86, -2.74, -12.68, 2.09, 1.56, 7.06, repro,
2007-07-14,-2.42, -3.20, -11.39, 2.15, 1.59, 7.28, repro,
2007-07-15,-1.54, -2.65, -3.19, 2.13, 1.59, 7.26, repro,
2007-07-16,-3.20, -3.68, -8.03, 2.09, 1.57, 7.08, repro,
2007-07-17,-2.65, -3.24, -0.71, 2.10, 1.57, 7.12, repro,
2007-07-18,-2.67, -2.39, -2.50, 2.29, 1.69, 7.80, repro,
2007-07-19,-4.00, -1.74, -6.08, 2.11, 1.57, 7.12, repro,
2007-07-20,-2.87, -2.99, -6.77, 2.14, 1.60, 7.34, repro,
2007-07-21,-3.63, -3.14, -5.55, 2.14, 1.60, 7.34, repro,
2007-07-22,-1.52, -3.90, -14.36, 2.14, 1.60, 7.36, repro,
2007-07-23,-3.52, -2.55, -14.42, 2.09, 1.57, 7.10, repro,
2007-07-24,-2.24, -2.62, -8.85, 2.17, 1.62, 7.54, repro,
2007-07-25,-1.63, -2.57, -0.60, 2.12, 1.59, 7.30, repro,
2007-07-26,-1.44, -2.82, -3.75, 2.07, 1.58, 7.11, repro,
2007-07-27,-1.71, -3.44, 3.79, 2.14, 1.64, 7.32, repro,
2007-07-28,-0.86, -3.08, -2.20, 2.14, 1.59, 7.32, repro,
2007-07-29,-1.24, -2.91, -2.87, 2.14, 1.59, 7.32, repro,
2007-07-30,-2.61, -2.94, -2.73, 2.07, 1.56, 7.00, repro,
2007-07-31,-3.48, -1.81, -1.35, 2.07, 1.57, 7.06, repro,
2007-08-01,-3.38, -2.49, 0.90, 2.07, 1.58, 7.10, repro,
2007-08-02,-1.60, -1.75, -10.56, 2.13, 1.60, 7.35, repro,
2007-08-03,-2.49, -3.60, -4.22, 2.08, 1.56, 7.06, repro,
2007-08-04,-2.39, -3.84, -1.62, 2.09, 1.57, 7.11, repro,
2007-08-05,-3.49, -4.43, 13.54, 2.16, 1.66, 7.50, repro,
2007-08-06,-3.05, -3.25, 6.58, 2.14, 1.62, 7.24, repro,
2007-08-07,-0.90, -3.94, 2.28, 2.20, 1.71, 7.52, repro,
2007-08-08,-1.08, -4.04, 2.00, 2.10, 1.58, 7.18, repro,
2007-08-09,-2.77, -3.32, 6.06, 2.08, 1.57, 7.09, repro,
2007-08-10,-4.29, -2.38, -2.16, 2.06, 1.57, 7.04, repro,
2007-08-11,-2.49, -4.22, 6.24, 2.11, 1.61, 7.31, repro,
2007-08-12,-3.89, -2.62, 2.54, 2.19, 1.64, 7.45, repro,
2007-08-13,-3.04, -2.58, -3.62, 2.07, 1.57, 7.11, repro,
2007-08-14,-3.50, -3.00, 4.50, 2.38, 1.76, 7.89, repro,
2007-08-15,-1.27, -3.35, -1.35, 2.32, 1.70, 7.79, repro,
2007-08-16,-4.90, -3.05, 5.83, 2.18, 1.63, 7.30, repro,
2007-08-17,-3.63, -2.42, -4.64, 2.18, 1.64, 7.36, repro,
2007-08-18,-2.56, -2.13, 1.01, 2.24, 1.68, 7.51, repro,
2007-08-19,-3.35, -1.55, 3.75, 2.26, 1.70, 7.60, repro,
2007-08-20,-1.86, -1.51, -2.64, 2.21, 1.66, 7.49, repro,
2007-08-21,-3.53, -2.16, -1.60, 2.19, 1.66, 7.45, repro,
2007-08-22,-2.14, -4.84, -6.23, 2.39, 1.78, 7.91, repro,
2007-08-23,-4.50, -1.41, -0.49, 2.20, 1.69, 7.59, repro,
2007-08-24,-1.18, -4.70, -3.22, 2.26, 1.68, 7.71, repro,
2007-08-25,-2.98, -2.53, -1.38, 2.18, 1.62, 7.45, repro,
2007-08-26,-2.62, -2.49, -10.34, 2.25, 1.66, 7.52, repro,
2007-08-27,-3.27, -1.20, -6.82, 2.41, 1.87, 8.32, repro,
2007-08-28,-3.57, -2.68, -7.92, 2.16, 1.61, 7.36, repro,
2007-08-29,-5.31, -3.49, 1.55, 2.32, 1.73, 7.84, repro,
2007-08-30,-3.00, -2.74, -11.70, 2.20, 1.65, 7.59, repro,
2007-08-31,-2.55, -2.54, -12.94, 2.17, 1.61, 7.37, repro,
2007-09-01,-2.98, -2.07, -10.10, 2.18, 1.62, 7.41, repro,
2007-09-02,-4.04, -2.38, -8.95, 2.15, 1.62, 7.37, repro,
2007-09-03,-5.24, -1.17, -9.19, 2.19, 1.63, 7.44, repro,
2007-09-04,-2.21, -1.39, -6.92, 2.23, 1.67, 7.57, repro,
2007-09-05,-4.16, -1.51, -1.81, 2.24, 1.66, 7.55, repro,
2007-09-06,-4.10, -0.82, -5.28, 2.18, 1.62, 7.38, repro,
2007-09-07,-6.38, -0.42, -6.86, 2.32, 1.81, 8.21, repro,
2007-09-08,-2.88, -1.82, -7.69, 2.33, 1.74, 7.79, repro,
2007-09-09,-0.95, -1.47, -11.22, 2.35, 1.75, 8.09, repro,
2007-09-10,-4.50, -2.07, -7.18, 2.56, 1.96, 8.77, repro,
2007-09-11,-4.25, -2.03, -5.02, 2.20, 1.63, 7.44, repro,
2007-09-12,-4.86, -1.61, -4.22, 2.18, 1.63, 7.44, repro,
2007-09-13,-3.90, -1.36, -2.00, 2.27, 1.66, 7.60, repro,
2007-09-14,-3.78, -2.15, -8.44, 2.28, 1.68, 7.59, repro,
2007-09-15,-2.21, -1.85, -4.24, 2.34, 1.77, 7.87, repro,
2007-09-16,-3.10, -1.34, -5.70, 2.19, 1.63, 7.37, repro,
2007-09-17,-5.01, -0.89, 6.16, 2.24, 1.67, 7.57, repro,
2007-09-18,-4.21, -0.59, 1.60, 2.16, 1.61, 7.35, repro,
2007-09-19,-2.53, -2.03, 0.89, 2.25, 1.73, 7.60, repro,
2007-09-20,-3.49, -1.77, -5.55, 2.15, 1.61, 7.23, repro,
2007-09-21,-1.62, -2.20, -0.97, 2.15, 1.61, 7.18, repro,
2007-09-22,-3.61, -1.53, -0.06, 2.31, 1.79, 7.98, repro,
2007-09-23,-4.25, -1.25, -6.62, 2.23, 1.68, 7.46, repro,
2007-09-24,-4.11, -2.66, -2.50, 2.19, 1.64, 7.33, repro,
2007-09-25,-4.97, -1.79, 7.61, 2.30, 1.73, 7.75, repro,
2007-09-26,-3.80, -2.45, -7.36, 2.24, 1.67, 7.47, repro,
2007-09-27,-3.22, -3.27, -4.30, 2.14, 1.65, 7.31, repro,
2007-09-28,-4.03, -2.08, -5.91, 2.18, 1.62, 7.33, repro,
2007-09-29,-4.02, -1.44, -6.80, 2.21, 1.67, 7.37, repro,
2007-09-30,-4.72, -1.27, 2.92, 2.22, 1.66, 7.36, repro,
2007-10-01,-4.59, -2.36, -0.62, 2.23, 1.68, 7.45, repro,
2007-10-02,-3.76, -0.53, 0.21, 2.25, 1.73, 7.61, repro,
2007-10-03,-3.22, -2.37, 5.60, 2.60, 2.18, 9.42, repro,
2007-10-04,-2.82, -2.42, -3.04, 2.14, 1.67, 7.33, repro,
2007-10-05,-5.20, -3.36, -3.91, 2.22, 1.67, 7.39, repro,
2007-10-06,-1.69, -1.77, -4.96, 2.21, 1.66, 7.32, repro,
2007-10-07,-3.17, -2.10, -6.65, 2.24, 1.69, 7.47, repro,
2007-10-08,-1.98, -2.73, 2.05, 2.49, 1.85, 8.15, repro,
2007-10-09,-3.42, -4.32, -4.46, 2.47, 1.82, 8.23, repro,
2007-10-10,-3.27, -5.02, -7.69, 2.30, 1.78, 7.63, repro,
2007-10-11,-3.19, -3.67, -8.31, 2.21, 1.66, 7.36, repro,
2007-10-12,-4.35, -3.06, -10.19, 2.20, 1.66, 7.41, repro,
2007-10-13,-2.98, -2.66, 0.60, 2.12, 1.61, 7.14, repro,
2007-10-14,-3.96, -2.51, -2.01, 2.12, 1.62, 7.16, repro,
2007-10-15,-0.26, -1.69, -10.93, 2.15, 1.64, 7.33, repro,
2007-10-16,-2.93, -2.62, -0.68, 2.13, 1.62, 7.21, repro,
2007-10-17,-2.46, -3.20, -5.53, 2.12, 1.63, 7.21, repro,
2007-10-18,-1.87, -2.64, 11.42, 2.18, 1.66, 7.49, repro,
2007-10-19,-3.10, -4.20, 18.09, 2.13, 1.62, 7.18, repro,
2007-10-20,-3.03, -2.58, 3.67, 2.14, 1.62, 7.19, repro,
2007-10-21,-2.70, -3.00, -2.86, 2.13, 1.62, 7.18, repro,
2007-10-22,-1.30, -4.65, -10.95, 2.08, 1.63, 7.20, repro,
2007-10-23,-1.63, -4.34, -8.80, 2.20, 1.67, 7.33, repro,
2007-10-24,-0.03, -4.91, -10.02, 2.22, 1.72, 7.45, repro,
2007-10-25,-2.52, -2.78, -8.77, 2.12, 1.61, 7.14, repro,
2007-10-26,-2.69, -3.08, -9.07, 2.20, 1.63, 7.42, repro,
2007-10-27,-1.57, -4.25, -14.03, 2.14, 1.66, 7.25, repro,
2007-10-28,-1.94, -3.82, -21.45, 2.15, 1.62, 7.25, repro,
2007-10-29,-1.62, -2.69, -19.05, 2.12, 1.60, 7.09, repro,
2007-10-30,-2.30, -2.83, -11.89, 2.12, 1.60, 7.07, repro,
2007-10-31,-2.56, -3.48, -8.36, 2.14, 1.60, 7.14, repro,
2007-11-01,-2.12, -3.77, -13.52, 2.07, 1.58, 7.08, repro,
2007-11-02,-2.21, -2.91, -13.68, 2.06, 1.58, 7.04, repro,
2007-11-03,-1.32, -2.99, -10.69, 2.06, 1.58, 6.99, repro,
2007-11-04,-1.69, -2.87, -6.34, 2.06, 1.58, 7.03, repro,
2007-11-05,-0.39, -3.27, -11.56, 2.08, 1.57, 7.05, repro,
2007-11-06,-1.49, -4.07, -18.39, 2.08, 1.59, 7.10, repro,
2007-11-07,-1.33, -4.08, -19.28, 2.14, 1.65, 7.31, repro,
2007-11-08,-0.20, -3.05, -11.49, 2.13, 1.62, 7.21, repro,
2007-11-09,-1.11, -2.67, -13.00, 2.12, 1.61, 7.16, repro,
2007-11-10,0.20, -1.91, -13.07, 2.10, 1.60, 7.15, repro,
2007-11-11,-2.39, -2.73, -7.20, 2.09, 1.59, 7.15, repro,
2007-11-12,-1.45, -2.79, -14.14, 2.08, 1.59, 7.15, repro,
2007-11-13,-1.84, -2.87, -9.47, 2.10, 1.62, 7.29, repro,
2007-11-14,-1.91, -2.98, -2.29, 2.09, 1.60, 7.16, repro,